User: anonymous   Login
Location: Aytr�
(46.1357°N, 1.1145°W)
Time: 06:36:36
(UTC+00:00)
Language:

FALCON 9 DEB - Orbit

View from above orbital plane
View from above orbital plane
View from above satellite
View from above satellite

Ground track
Ground track

The orbit data is extracted from the following two-line orbital elements,

1 44295U 19029BN  21134.78076483  .00003141  00000-0  72271-4 0  9991
2 44295  53.0016 341.1488 0009817  56.6326 303.5618 15.45908105112708
Epoch (UTC): 14 May 2021 18:44:18
Eccentricity: 0.0009817
inclination: 53.0016°
perigee height: 422 km
apogee height: 435 km
right ascension of ascending node: 341.1488°
argument of perigee: 56.6326°
revolutions per day: 15.45908105
mean anomaly at epoch: 303.5618°
orbit number at epoch: 11270

The dashed part of the orbit path shows where the satellite is in the earth's shadow,  

DLR